VK4VP-5 Buderim QLD AU current weather conditions

sailwx.info

Wind from 346 at 7 knots gusting 14

Air temperature 22.2° C
Dewpoint 13.3° C

Last reported at 2014-Sep-02 00:50 UTC.
Time now 2014-Sep-02 02:06 UTC

Location: S 26°42' E 153°05'.
View on Google Maps.

See reports from other nearby stations

  
Tides and Currents Weather Stations Pressure Air Temp Water Temp Dewpoint Dewpoint Depression Visibility Wind Speed Wind Dir Waves Ship Positions
date/time (UTC)wind fromknots sea level pressurealtimeterstation pressurevisibilityair tempwater tempwave heightnotes
2014-Sep-02 01:50 324 7 gusting 19 23.3
2014-Sep-02 01:40 331 6 gusting 14 23.3
2014-Sep-02 01:30 330 6 gusting 14 22.8
2014-Sep-02 01:20 328 8 gusting 16 22.2
2014-Sep-02 01:10 332 9 gusting 16 22.2
2014-Sep-02 01:00 334 7 gusting 16 22.2
2014-Sep-02 00:50 346 7 gusting 14 22.2
2014-Sep-02 00:40 342 6 gusting 17 22.2
2014-Sep-02 00:30 341 6 gusting 11 21.7
2014-Sep-02 00:20 327 6 gusting 13 21.7
2014-Sep-02 00:10 324 7 gusting 15 21.1
2014-Sep-02 00:00 336 4 gusting 9 21.1
2014-Sep-01 23:50 322 5 gusting 13 20.6
2014-Sep-01 23:40 326 7 gusting 15 20.6
2014-Sep-01 23:30 328 7 gusting 14 20.6
2014-Sep-01 23:20 325 7 gusting 15 20.0
2014-Sep-01 23:10 322 7 gusting 16 20.0
2014-Sep-01 23:00 330 7 gusting 14 20.0
2014-Sep-01 22:50 330 7 gusting 15 19.4
2014-Sep-01 22:40 328 7 gusting 14 19.4
2014-Sep-01 22:30 340 7 gusting 16 19.4
2014-Sep-01 22:20 331 9 gusting 17 18.9
2014-Sep-01 22:10 327 9 gusting 17 18.9
2014-Sep-01 22:00 323 8 gusting 16 18.9
2014-Sep-01 21:50 328 10 gusting 18 18.3
2014-Sep-01 21:40 324 9 gusting 18 18.3
2014-Sep-01 21:30 326 8 gusting 18 18.3
2014-Sep-01 21:20 327 8 gusting 17 18.3
2014-Sep-01 21:10 329 10 gusting 18 17.8
2014-Sep-01 21:00 327 8 gusting 17 17.8
2014-Sep-01 20:50 329 9 gusting 14 17.8
2014-Sep-01 20:40 332 8 gusting 18 17.8
2014-Sep-01 20:30 335 8 gusting 18 17.8
2014-Sep-01 20:20 328 9 gusting 16 17.8
2014-Sep-01 20:10 323 8 gusting 17 17.8
2014-Sep-01 20:00 323 9 gusting 16 17.8
2014-Sep-01 19:50 327 7 gusting 15 17.8
2014-Sep-01 19:40 334 8 gusting 13 17.8
2014-Sep-01 19:30 329 7 gusting 13 17.8
2014-Sep-01 19:20 329 8 gusting 15 17.8
2014-Sep-01 19:10 326 10 gusting 17 17.8
2014-Sep-01 19:00 325 10 gusting 17 17.2
2014-Sep-01 18:50 321 8 gusting 17 17.2
2014-Sep-01 18:40 319 10 gusting 17 17.2
2014-Sep-01 18:30 321 8 gusting 15 17.2
2014-Sep-01 18:20 322 7 gusting 17 17.2
2014-Sep-01 18:10 328 7 gusting 16 17.2
2014-Sep-01 18:00 321 6 gusting 14 17.2
2014-Sep-01 17:50 332 6 gusting 11 16.7
2014-Sep-01 17:40 337 4 gusting 10 16.1
2014-Sep-01 17:30 345 4 gusting 9 16.1
2014-Sep-01 17:20 354 3 gusting 7 15.6
2014-Sep-01 17:10 351 3 gusting 8 16.1
2014-Sep-01 17:00 352 3 gusting 8 16.1
2014-Sep-01 16:50 350 4 gusting 9 16.1
2014-Sep-01 16:40 343 5 gusting 10 16.7
2014-Sep-01 16:30 338 6 gusting 13 16.7
2014-Sep-01 16:20 334 6 gusting 12 16.7
2014-Sep-01 16:10 339 6 gusting 11 16.7
2014-Sep-01 16:00 337 7 gusting 14 16.7
2014-Sep-01 15:50 332 7 gusting 15 17.2
2014-Sep-01 15:40 330 7 gusting 14 17.2
2014-Sep-01 15:30 329 7 gusting 13 17.2
2014-Sep-01 15:20 332 7 gusting 12 17.2
2014-Sep-01 15:10 329 8 gusting 14 17.2
2014-Sep-01 15:00 326 7 gusting 15 17.2
2014-Sep-01 14:50 328 6 gusting 13 17.2
2014-Sep-01 14:40 331 6 gusting 11 17.2
2014-Sep-01 14:30 330 6 gusting 11 17.2
2014-Sep-01 14:20 329 7 gusting 13 17.2
2014-Sep-01 14:10 329 7 gusting 13 17.8
2014-Sep-01 14:00 332 7 gusting 14 17.8
2014-Sep-01 13:50 336 6 gusting 12 17.8
2014-Sep-01 13:40 333 5 gusting 10 17.2
2014-Sep-01 13:30 332 6 gusting 10 17.2
2014-Sep-01 13:20 337 5 gusting 8 16.7
2014-Sep-01 13:10 339 6 gusting 11 16.7
2014-Sep-01 13:00 342 6 gusting 12 16.7
2014-Sep-01 12:50 338 6 gusting 14 17.2
2014-Sep-01 12:40 351 6 gusting 10 17.2
2014-Sep-01 12:30 348 6 gusting 11 17.2
2014-Sep-01 12:20 351 5 gusting 10 17.2
2014-Sep-01 12:10 349 6 gusting 11 17.8
2014-Sep-01 12:00 343 6 gusting 11 17.2
2014-Sep-01 11:50 340 6 gusting 11 17.8
2014-Sep-01 11:40 344 6 gusting 11 17.8
2014-Sep-01 11:30 346 6 gusting 12 17.8
2014-Sep-01 11:20 344 6 gusting 11 18.3
2014-Sep-01 11:10 343 7 gusting 15 18.3
2014-Sep-01 11:00 337 6 gusting 13 18.3
2014-Sep-01 10:50 339 6 gusting 12 18.3
2014-Sep-01 10:40 331 6 gusting 14 18.3
2014-Sep-01 10:30 334 6 gusting 11 18.3
2014-Sep-01 10:20 344 4 gusting 8 18.3
2014-Sep-01 10:10 006 3 gusting 8 18.3
2014-Sep-01 10:00 354 3 gusting 8 18.3
2014-Sep-01 09:50 345 5 gusting 10 18.9
2014-Sep-01 09:40 357 4 gusting 8 18.9
2014-Sep-01 09:30 347 4 gusting 9 18.9
2014-Sep-01 09:20 353 4 gusting 9 19.4
2014-Sep-01 09:10 002 6 gusting 13 19.4
2014-Sep-01 09:00 003 6 gusting 11 19.4
2014-Sep-01 08:50 358 5 gusting 11 19.4
2014-Sep-01 08:40 013 5 gusting 13 19.4
2014-Sep-01 08:30 010 5 gusting 11 19.4
2014-Sep-01 08:20 008 6 gusting 12 19.4
2014-Sep-01 08:10 016 6 gusting 12 20.0
2014-Sep-01 08:00 011 5 gusting 11 20.0
2014-Sep-01 07:50 013 6 gusting 13 20.0
2014-Sep-01 07:40 013 6 gusting 12 20.0
2014-Sep-01 07:30 014 6 gusting 12 20.0
2014-Sep-01 07:20 021 6 gusting 13 20.0
2014-Sep-01 07:10 018 6 gusting 16 20.6
2014-Sep-01 07:00 022 7 gusting 14 20.6
2014-Sep-01 06:50 015 6 gusting 12 20.6
2014-Sep-01 06:40 013 7 gusting 14 20.6
2014-Sep-01 06:30 015 7 gusting 14 20.6
2014-Sep-01 06:20 021 8 gusting 17 21.1
2014-Sep-01 06:10 025 6 gusting 13 21.1
2014-Sep-01 06:00 021 8 gusting 18 21.1
2014-Sep-01 05:50 016 6 gusting 16 21.1
2014-Sep-01 05:40 026 6 gusting 13 21.1
2014-Sep-01 05:30 028 7 gusting 16 21.1
2014-Sep-01 05:20 034 7 gusting 14 21.1
2014-Sep-01 05:10 029 6 gusting 14 21.1
2014-Sep-01 05:00 018 7 gusting 16 21.1
2014-Sep-01 04:50 016 6 gusting 15 21.1
2014-Sep-01 04:40 026 7 gusting 14 21.1
2014-Sep-01 04:30 025 7 gusting 13 21.1
2014-Sep-01 04:20 031 6 gusting 15 21.1
2014-Sep-01 04:10 031 6 gusting 15 21.1
2014-Sep-01 04:00 026 6 gusting 14 21.7
2014-Sep-01 03:50 032 6 gusting 12 21.7
2014-Sep-01 03:40 026 6 gusting 12 21.7
2014-Sep-01 03:30 032 6 gusting 10 21.7
2014-Sep-01 03:20 035 5 gusting 10 21.1
2014-Sep-01 03:10 030 6 gusting 12 21.7
2014-Sep-01 03:00 051 5 gusting 11 21.7
2014-Sep-01 02:50 045 5 gusting 10 22.2
2014-Sep-01 02:40 032 6 gusting 9 22.2
2014-Sep-01 02:30 024 4 gusting 9 22.2
2014-Sep-01 02:20 034 4 gusting 9 22.2
2014-Sep-01 02:10 040 3 gusting 9 22.2
2014-Sep-01 02:00 036 3 gusting 7 22.2
2014-Sep-01 01:50 045 4 gusting 10 22.8
2014-Sep-01 01:40 028 3 gusting 9 23.3
2014-Sep-01 01:30 027 2 gusting 8 23.3
2014-Sep-01 01:20 019 4 gusting 10 23.3
2014-Sep-01 01:10 024 2 gusting 8 23.3
2014-Sep-01 01:00 004 3 gusting 8 23.3
2014-Sep-01 00:50 349 1 gusting 6 23.3
2014-Sep-01 00:40 347 3 gusting 9 22.8
2014-Sep-01 00:30 342 4 gusting 10 22.2
2014-Sep-01 00:20 337 4 gusting 8 22.2
2014-Sep-01 00:10 343 2 gusting 8 22.2
2014-Sep-01 00:00 344 2 gusting 8 21.7
2014-Aug-31 23:50 344 1 gusting 9 21.7
2014-Aug-31 23:40 298 0 gusting 6 21.7
2014-Aug-31 23:30 320 4 gusting 9 21.1
2014-Aug-31 23:20 333 3 gusting 8 21.1
2014-Aug-31 23:10 321 0 gusting 5 20.6
2014-Aug-31 23:00 340 3 gusting 8 20.6
2014-Aug-31 22:50 331 2 gusting 6 20.6
2014-Aug-31 22:40 333 4 gusting 8 20.0
2014-Aug-31 22:30 328 2 gusting 8 20.0
2014-Aug-31 22:20 014 0 gusting 5 19.4
2014-Aug-31 22:10 355 1 gusting 5 18.9
2014-Aug-31 22:00 355 17.8
2014-Aug-31 21:50 16.7
2014-Aug-31 21:40 16.1
2014-Aug-31 21:30 15.6
2014-Aug-31 21:20 15.0
2014-Aug-31 21:10 14.4
2014-Aug-31 21:00 14.4
2014-Aug-31 20:50 13.3
2014-Aug-31 20:40 13.3
2014-Aug-31 20:30 087 12.8
2014-Aug-31 20:20 12.8
2014-Aug-31 20:10 12.8
2014-Aug-31 20:00 101 12.8
2014-Aug-31 19:50 087 12.8
2014-Aug-31 19:40 12.8
2014-Aug-31 19:30 13.3
2014-Aug-31 19:20 13.3
2014-Aug-31 19:10 13.3
2014-Aug-31 19:00 13.3
2014-Aug-31 18:50 13.3
2014-Aug-31 18:40 13.3
2014-Aug-31 18:30 13.3
2014-Aug-31 18:20 087 13.3
2014-Aug-31 18:10 13.3
2014-Aug-31 18:00 088 13.3
2014-Aug-31 17:50 13.3
2014-Aug-31 17:40 13.9
2014-Aug-31 17:30 13.9
2014-Aug-31 17:20 087 13.9
2014-Aug-31 17:10 088 13.9
2014-Aug-31 17:00 087 13.9
2014-Aug-31 16:50 087 13.9
2014-Aug-31 16:40 13.9
2014-Aug-31 16:30 13.9
2014-Aug-31 16:20 13.3
2014-Aug-31 16:10 13.9
2014-Aug-31 16:00 13.3
2014-Aug-31 15:50 13.9
2014-Aug-31 15:40 13.9
2014-Aug-31 15:30 13.9
2014-Aug-31 15:20 13.9
2014-Aug-31 15:10 13.9
2014-Aug-31 15:00 088 14.4
2014-Aug-31 14:50 087 14.4
2014-Aug-31 14:40 088 14.4
2014-Aug-31 14:30 087 14.4
2014-Aug-31 14:20 15.0
2014-Aug-31 14:10 15.0
2014-Aug-31 14:00 15.0
2014-Aug-31 13:50 15.0
2014-Aug-31 13:40 15.6
2014-Aug-31 13:30 15.6
2014-Aug-31 13:20 15.6
2014-Aug-31 13:10 15.6
2014-Aug-31 13:00 15.6
2014-Aug-31 12:50 15.6
2014-Aug-31 12:40 087 16.1
2014-Aug-31 12:30 088 16.1
2014-Aug-31 12:20 16.1
2014-Aug-31 12:10 16.1
2014-Aug-31 12:00 16.1
2014-Aug-31 11:50 087 16.1
2014-Aug-31 11:40 16.1
2014-Aug-31 11:30 16.1
2014-Aug-31 11:20 16.1
2014-Aug-31 11:10 16.1
2014-Aug-31 11:00 15.6
2014-Aug-31 10:50 15.6
2014-Aug-31 10:40 15.6
2014-Aug-31 10:30 15.6
2014-Aug-31 10:20 15.6
2014-Aug-31 10:10 15.6
2014-Aug-31 10:00 15.6
2014-Aug-31 09:50 15.6
2014-Aug-31 09:40 15.6
2014-Aug-31 09:30 16.1
2014-Aug-31 09:20 16.1
2014-Aug-31 09:10 16.7
2014-Aug-31 09:00 16.7
2014-Aug-31 08:50 17.2
2014-Aug-31 08:40 17.2
2014-Aug-31 08:30 17.8
2014-Aug-31 08:20 17.8
2014-Aug-31 08:10 18.3
2014-Aug-31 08:00 18.9
2014-Aug-31 07:50 087 18.9
2014-Aug-31 07:40 085 18.9
2014-Aug-31 07:30 067 19.4
2014-Aug-31 07:20 065 19.4
2014-Aug-31 07:10 065 20.0
2014-Aug-31 07:00 065 20.0
2014-Aug-31 06:50 067 0 gusting 6 20.0
2014-Aug-31 06:40 073 0 gusting 6 20.6
2014-Aug-31 06:30 084 20.6
2014-Aug-31 06:20 097 0 gusting 5 20.6
2014-Aug-31 06:10 099 1 gusting 5 20.6
2014-Aug-31 06:00 094 1 gusting 7 20.6
2014-Aug-31 05:50 068 0 gusting 3 21.1
2014-Aug-31 05:40 066 1 gusting 7 20.6
2014-Aug-31 05:30 049 1 gusting 6 20.6
2014-Aug-31 05:20 043 3 gusting 8 21.1
2014-Aug-31 05:10 064 1 gusting 8 21.1
2014-Aug-31 05:00 078 1 gusting 8 21.1
2014-Aug-31 04:50 078 0 gusting 6 21.7
2014-Aug-31 04:40 056 2 gusting 7 21.1
2014-Aug-31 04:30 080 2 gusting 6 21.1
2014-Aug-31 04:20 096 1 gusting 6 21.7
2014-Aug-31 04:10 113 1 gusting 6 21.1
2014-Aug-31 04:00 095 2 gusting 8 21.1
2014-Aug-31 03:50 097 1 gusting 10 21.1
2014-Aug-31 03:40 096 2 gusting 7 21.7
2014-Aug-31 03:30 124 2 gusting 8 21.7
2014-Aug-31 03:20 099 2 gusting 8 21.1
2014-Aug-31 03:10 104 2 gusting 8 21.7
2014-Aug-31 03:00 122 1 gusting 8 21.7
2014-Aug-31 02:50 131 1 gusting 8 21.7
2014-Aug-31 02:40 096 2 gusting 10 21.7
2014-Aug-31 02:30 121 1 gusting 8 22.2
2014-Aug-31 02:20 087 2 gusting 7 21.7
2014-Aug-31 02:10 126 1 gusting 7 21.7
2014-Aug-31 02:00 112 2 gusting 7 21.7